User: anonymous   Login
Location: Unspecified
(0.0000°N, 0.0000°E)
Time: 15:47:00
(UTC+02:00)
Language:

SeaSat 1 - Orbit

View from above orbital plane
View from above orbital plane
View from above satellite
View from above satellite

Ground track
Ground track

The orbit data is extracted from the following two-line orbital elements,

1 10967U 78064A   18171.47415300 -.00000070  00000-0  19866-4 0  9992
2 10967 108.0195 349.2244 0002516 273.5364  86.5493 14.43717761 99757
Epoch (UTC): 20 June 2018 11:22:46
Eccentricity: 0.0002516
inclination: 108.0195°
perigee height: 744 km
apogee height: 748 km
right ascension of ascending node: 349.2244°
argument of perigee: 273.5364°
revolutions per day: 14.43717761
mean anomaly at epoch: 86.5493°
orbit number at epoch: 9975

The dashed part of the orbit path shows where the satellite is in the earth's shadow,  

DLR